Regional Weather Roundup
Issued by NWS Charleston, SC

Current Version | Previous Version | Graphics & Text | Print | Product List | Glossary On
Versions: 1 2 3 4 5 6 7 8 9 10 11 12 13 14 15 16 17 18 19 20 21 22 23 24 25 26 27 28 29 30 31 32 33 34 35 36 37 38 39 40 41 42 43 44 45 46 47 48 49 50
000
ASUS42 KCHS 281326
RWRCHS

REGIONAL WEATHER ROUNDUP
NATIONAL WEATHER SERVICE CHARLESTON SC
900 AM EDT TUE JUL 28 2015

NOTE: "FAIR" INDICATES FEW OR NO CLOUDS BELOW 12,000 FEET WITH NO
SIGNIFICANT WEATHER AND/OR OBSTRUCTIONS TO VISIBILITY.

NOT ALL STATIONS ARE QUALITY CONTROLLED BY THE NATIONAL
WEATHER SERVICE. USE DATA WITH CAUTION...ESPECIALLY
DEWPOINT OBSERVATIONS.

SCZ027-030-031-034>040-042>050-281400-
...SOUTHEAST SOUTH CAROLINA...

CITY           SKY/WX    TMP DP  RH WIND       PRES   REMARKS
N CHARLESTON   MOSUNNY   82  76  81 VRB6      29.99R
WATERFRONT PRK   N/A     82  78  88 N6        29.96R HX  91
MOUNT PLEASANT FAIR      82  77  83 NE5       29.99R HX  91
JOHNS ISLAND   FAIR      84  77  79 NE7       29.98S HX  94
PINOPOLIS      NOT AVBL
MONCKS CORNER  FAIR      82  75  78 E5        30.00R
SUMMERVILLE    FAIR      82  77  83 NE5       30.01R HX  91
BEAUFORT MCAS  PTSUNNY   83  77  82 NE7       29.99S HX  92
BEAUFORT ARPT  PTSUNNY   81  79  94 CALM      29.98S
HILTON HEAD IS NOT AVBL
WALTERBORO     MOSUNNY   84  77  79 E6        30.01S HX  94
ALLENDALE      PTSUNNY   81  77  89 CALM      30.00S

...SOUTHERN MIDLANDS AND PEE DEE...

CITY           SKY/WX    TMP DP  RH WIND       PRES   REMARKS
GEORGETOWN     NOT AVBL
KINGSTREE      NOT AVBL
ORANGEBURG     MOSUNNY   83  75  77 E5        30.01S HX  90
BARNWELL       FAIR      82  77  83 NE3       30.02S HX  91
AIKEN          FAIR      79  72  78 SE3       30.06R
MANNING        FAIR      81  73  78 E3        30.01R
COLUMBIA       CLOUDY    82  74  76 SE5       30.01R
SUMTER         MOSUNNY   83  74  73 E5        29.99S
FLORENCE       SUNNY     80  73  79 E7        30.01R
MYRTLE BEACH   SUNNY    N/A  72   0 NE6       30.01R
N MYRTLE BEACH SUNNY     81  73  76 NE6       29.99S

$$

GAZ063-065-086>088-099>101-113>116-118-119-134>141-150-281400-
...SOUTHEAST GEORGIA...

CITY           SKY/WX    TMP DP  RH WIND       PRES   REMARKS
SAVANNAH ARPT  PTSUNNY   79  77  94 N5        29.99S
HUNTER AAF     PTSUNNY   81  81 100 NW3       29.96S HX  91
FORT STEWART   PTSUNNY   79  77  94 NE7       29.98R
STATESBORO     CLOUDY    80  80 100 CALM      30.00S
SYLVANIA       PTSUNNY   82  79  90 E5        30.02S HX  92
CLAXTON        PTSUNNY   81  77  89 E5        30.00S

...CSRA...CENTRAL AND FAR SOUTHEAST GEORGIA...

CITY           SKY/WX    TMP DP  RH WIND       PRES   REMARKS
THOMSON        MOSUNNY   84  77  81 CALM      30.06S HX  93
AUGUSTA-BUSH   MOSUNNY   80  75  84 SE3       30.00R
AUGUSTA-DANIEL PTSUNNY   81  75  82 S3        30.03R
SWAINSBORO     FAIR     N/A N/A N/A SE3       30.02R
VIDALIA        MOSUNNY   81  75  83 CALM      30.01R
EASTMAN        FAIR      81  80  99 CALM      30.04R HX  91
HAZLEHURST     FAIR      83  79  89 CALM      30.00R HX  94
ALMA           CLOUDY    77  77 100 N5        30.00R FOG
WAYCROSS       CLOUDY    81  81 100 NE5       29.99S HX  91
JESUP          FOG       81  79  94 CALM      30.00R VSB 3/4
BAXLEY         CLOUDY    79  79 100 CALM      30.00S FOG
BRUNSWICK      PTSUNNY   77  73  88 N3        29.98S
SAINT SIMONS   LGT RAIN  82  78  88 N3        29.97R HX  91

$$

SCZ027-028-034-036>038-045-046-048>050-GAZ119-141-281400-
...LAKE AND SUPPLEMENTAL COASTAL OBSERVATIONS...

STATION/POSITION TIME  TEMP    WIND        PRES    WAVE   SWELL
                       AIR SEA DIR/SP/G            HT/PER HT/PER/DIR
                 (UTC) (F)     (DEG/KT/KT) (MB)    (FT/S) (FT/S/D)
UPR LAKE MARION  NOT AVBL
WINYAH BAY       1245   81      60/ 10     1014.0S
LAKE MURRAY      1200   80      90/  2/  4 1015.6R
ACE BASIN NERRS  NOT AVBL
FORT PULASKI     1300   81 85  350/  5/  6 1015.7R
SAPELO ISLAND    1300   83      20/  5     1015.0S

$$

ANZ835-935-AMZ111-154-330-350-352-354-370-450-454-472-281400-
...C-MAN AND BUOY OBSERVATIONS...

STATION/POSITION TIME  TEMP    WIND        PRES    WAVE   SWELL
                       AIR SEA DIR/SP/G            HT/PER HT/PER/DIR
                 (UTC) (F)     (DEG/KT/KT) (MB)    (FT/S) (FT/S/D)
BUOY 41004       1250   83 84   40/ 10/ 12 1014.3R   3/ 7   3/ 7
BUOY 41008       1250   81 82   70/  4/  6 1015.2R   2/ 6   2/130/ 6
FOLLY BEACH CMAN 1300   81      30/  7/  8 1015.3R
CAPERS NEARSHORE 1208   82      60/ 12/ 17 1015.2R
FRIPP NEARSHORE  1200   83      40/  8/ 10 1014.7R


STATION/POSITION TIME  TEMP    WIND        PRES    WAVE   SWELL
                       AIR SEA DIR/SP/G            HT/PER HT/PER/DIR
                 (UTC) (F)     (DEG/KT/KT) (MB)    (FT/S) (FT/S/D)
5E ST. MARYS GA  1221      81                N/A     2/ 6
FRYING PAN BUOY  1250   83 83   60/ 16/ 17 1015.4R   4/ 8   3/180/ 8
BUOY 41025       NOT AVBL
CAPE LOOKOUT NC  1300   81      70/ 13/ 15 1016.0R
BUOY 41002       1250   78 82  290/ 14/ 23 1016.0R   6/ 6   5/200/ 6
BUOY 41010       1220   84 84  220/ 12/ 16 1015.9R
ST AUGUSTINE FL  1300   78 79  170/  3/  4 1015.4R


$$


USA.gov is the U.S. government's official web portal to all federal, state and local government web resources and services.